| time (UTC) | temp F | wind direction | speed MPH | gust MPH | rain 1hr in | rain 24hr in | rain mn in | humidity % | barometer mb |
| 20260504080353 | 49 | 0 | 0.0 | 4.0 | 0.00 | 0.00 | 0.00 | 52 | 1012.2 |
| 20260504070239 | 50 | 0 | 1.0 | 0.0 | 0.00 | 0.00 | 0.00 | 51 | 1013.0 |
| 20260504045941 | 51 | 0 | 1.0 | 4.0 | 0.00 | 0.00 | 0.00 | 49 | 1014.2 |
| 20260504044937 | 51 | 0 | 1.0 | 4.0 | 0.00 | 0.00 | 0.00 | 49 | 1014.2 |
| 20260504043926 | 51 | 0 | 1.0 | 5.0 | 0.00 | 0.00 | 0.00 | 49 | 1014.3 |
| 20260504042907 | 51 | 0 | 1.0 | 7.0 | 0.00 | 0.00 | 0.00 | 49 | 1014.6 |
| 20260504041922 | 50 | 0 | 1.0 | 7.0 | 0.00 | 0.00 | 0.00 | 50 | 1014.6 |
| 20260504034638 | 50 | 0 | 1.0 | 7.0 | 0.00 | 0.00 | 0.00 | 52 | 1014.8 |
| 20260504033613 | 49 | 0 | 0.0 | 2.0 | 0.00 | 0.00 | 0.00 | 53 | 1014.9 |
| 20260504032546 | 49 | 0 | 0.0 | 2.0 | 0.00 | 0.00 | 0.00 | 54 | 1015.0 |
| 20260504031528 | 49 | 0 | 0.0 | 1.0 | 0.00 | 0.00 | 0.00 | 54 | 1015.1 |
| 20260504030524 | 49 | 0 | 0.0 | 3.0 | 0.00 | 0.00 | 0.00 | 55 | 1015.2 |
| 20260504024324 | 49 | 0 | 0.0 | 1.0 | 0.00 | 0.00 | 0.00 | 54 | 1015.4 |
| 20260504023324 | 49 | 0 | 0.0 | 0.0 | 0.00 | 0.00 | 0.00 | 54 | 1015.4 |
| 20260504022318 | 49 | 0 | 0.0 | 0.0 | 0.00 | 0.00 | 0.00 | 54 | 1015.5 |
| 20260504021252 | 49 | 0 | 1.0 | 4.0 | 0.00 | 0.00 | 0.00 | 55 | 1015.6 |
| 20260504020259 | 49 | 0 | 0.0 | 2.0 | 0.00 | 0.00 | 0.00 | 53 | 1015.6 |
| 20260504015301 | 49 | 0 | 0.0 | 3.0 | 0.00 | 0.00 | 0.00 | 54 | 1015.5 |
| 20260504013148 | 49 | 0 | 0.0 | 2.0 | 0.00 | 0.00 | 0.00 | 54 | 1015.5 |
| 20260504012122 | 49 | 0 | 0.0 | 1.0 | 0.00 | 0.00 | 0.00 | 54 | 1015.7 |
| 20260504011117 | 49 | 0 | 0.0 | 1.0 | 0.00 | 0.00 | 0.00 | 54 | 1015.6 |
| 20260504010112 | 49 | 0 | 0.0 | 0.0 | 0.00 | 0.00 | 0.00 | 54 | 1015.5 |
| 20260504005118 | 49 | 0 | 0.0 | 3.0 | 0.00 | 0.00 | 0.00 | 54 | 1015.5 |
| 20260504004044 | 49 | 0 | 0.0 | 0.0 | 0.00 | 0.00 | 0.00 | 53 | 1015.5 |
| 20260504003056 | 49 | 0 | 0.0 | 0.0 | 0.00 | 0.00 | 0.00 | 53 | 1015.5 |
| 20260504002047 | 49 | 0 | 0.0 | 0.0 | 0.00 | 0.00 | 0.00 | 53 | 1015.5 |
| 20260504001022 | 49 | 0 | 0.0 | 1.0 | 0.00 | 0.00 | 0.00 | 53 | 1015.6 |
| 20260503235952 | 49 | 0 | 0.0 | 1.0 | 0.00 | 0.00 | 0.00 | 53 | 1015.9 |
| 20260503234934 | 49 | 0 | 0.0 | 1.0 | 0.00 | 0.00 | 0.00 | 54 | 1016.0 |
| 20260503232739 | 50 | 0 | 2.0 | 13.0 | 0.00 | 0.00 | 0.00 | 53 | 1016.3 |
| 20260503231745 | 51 | 0 | 6.0 | 16.0 | 0.00 | 0.00 | 0.00 | 51 | 1016.8 |
| 20260503230750 | 51 | 0 | 7.0 | 22.0 | 0.00 | 0.00 | 0.00 | 49 | 1016.9 |
| 20260503225750 | 52 | 0 | 8.0 | 22.0 | 0.00 | 0.00 | 0.00 | 46 | 1016.8 |
| 20260503224747 | 53 | 0 | 7.0 | 19.0 | 0.00 | 0.00 | 0.00 | 43 | 1016.8 |
| 20260503223720 | 55 | 0 | 9.0 | 25.0 | 0.00 | 0.00 | 0.00 | 38 | 1016.7 |
| 20260503222709 | 57 | 0 | 8.0 | 25.0 | 0.00 | 0.00 | 0.00 | 32 | 1016.7 |
| 20260503221724 | 58 | 0 | 7.0 | 23.0 | 0.00 | 0.00 | 0.00 | 27 | 1016.3 |
| 20260503220726 | 59 | 0 | 5.0 | 18.0 | 0.00 | 0.00 | 0.00 | 26 | 1016.3 |
| 20260503214547 | 60 | 0 | 6.0 | 17.0 | 0.00 | 0.00 | 0.00 | 25 | 1016.3 |
| 20260503213533 | 60 | 0 | 6.0 | 17.0 | 0.00 | 0.00 | 0.00 | 25 | 1016.3 |
| 20260503212505 | 60 | 0 | 6.0 | 16.0 | 0.00 | 0.00 | 0.00 | 24 | 1016.4 |
| 20260503210312 | 61 | 0 | 4.0 | 17.0 | 0.00 | 0.00 | 0.00 | 23 | 1016.5 |
| 20260503205304 | 61 | 0 | 6.0 | 17.0 | 0.00 | 0.00 | 0.00 | 22 | 1016.6 |
| 20260503204315 | 62 | 0 | 6.0 | 16.0 | 0.00 | 0.00 | 0.00 | 23 | 1016.8 |
| 20260503203318 | 62 | 0 | 3.0 | 11.0 | 0.00 | 0.00 | 0.00 | 25 | 1016.9 |
| 20260503202307 | 63 | 0 | 3.0 | 13.0 | 0.00 | 0.00 | 0.00 | 24 | 1017.0 |
| 20260503200141 | 62 | 0 | 4.0 | 18.0 | 0.00 | 0.00 | 0.00 | 22 | 1017.1 |
| 20260503195122 | 62 | 0 | 6.0 | 18.0 | 0.00 | 0.00 | 0.00 | 25 | 1017.2 |
| 20260503192921 | 63 | 0 | 5.0 | 20.0 | 0.00 | 0.00 | 0.00 | 24 | 1017.4 |
| 20260503190723 | 63 | 0 | 4.0 | 14.0 | 0.00 | 0.00 | 0.00 | 23 | 1018.0 |
| 20260503185711 | 63 | 0 | 4.0 | 12.0 | 0.00 | 0.00 | 0.00 | 23 | 1018.2 |
| 20260503183556 | 62 | 0 | 4.0 | 17.0 | 0.00 | 0.00 | 0.00 | 24 | 1018.5 |
| 20260503182621 | 61 | 0 | 5.0 | 17.0 | 0.00 | 0.00 | 0.00 | 23 | 1018.5 |
| 20260503172020 | 60 | 0 | 6.0 | 16.0 | 0.00 | 0.00 | 0.00 | 24 | 1019.8 |
| 20260503171028 | 60 | 0 | 5.0 | 16.0 | 0.00 | 0.00 | 0.00 | 25 | 1019.9 |
| 20260503150755 | 57 | 0 | 4.0 | 15.0 | 0.00 | 0.00 | 0.00 | 32 | 1020.6 |